Regional Weather Roundup
Issued by NWS Sterling, VA

Home | Current Version | Previous Version | Text Only | Print | Product List | Glossary Off
Versions: 1 2 3 4 5 6 7 8 9 10 11 12 13 14 15 16 17 18 19 20 21 22 23 24 25 26 27 28 29 30 31 32 33 34 35 36 37 38 39 40 41 42 43 44 45 46 47 48 49 50

000
ASUS41 KLWX 050110
RWRLWX

REGIONAL WEATHER ROUNDUP
NATIONAL WEATHER SERVICE BALTIMORE MD/WASHINGTON DC
800 PM EST WED MAR 04 2015

Note: "FAIR" indicates few or no clouds below 12,000 feet
with no significant weather and/or obstructions to visibility.
 TC=TEMPERATURE CELSIUS

 * =Non NWS site. Station does not report precipitation (e.g. rain,
    snow, etc.), thunder, or fog.

DCZ001-MDZ009-015-VAZ040>042-051-053>054-050200-
WASHINGTON METRO

CITY           SKY/WX    TMP DP  RH WIND       PRES   REMARKS
WASHINGTON NAT LGT RAIN  47  44  90 CALM      29.92R VSB 1/2
DULLES         RAIN      43  41  93 NW7       29.91R VSB 1/2
ANDREWS AFB    DRZL/FOG  45  45 100 NE2       29.90R VSB 3/4
FT BELVOIR     LGT RAIN  43  43 100 CALM      29.91R FOG
QUANTICO       LGT RAIN  42  40  92 CALM      29.92R VSB 1/2
COLLEGE PARK*  CLOUDY    43  43 100 CALM      29.92R VSB 3/4
LEESBURG*      RAIN      43  43 100 N3        29.93R
GAITHERSBURG*  CLOUDY    41  39  93 CALM      29.95R VSB 1/2

$$

MDZ006>007-011-014-050200-
BALTIMORE METRO

CITY           SKY/WX    TMP DP  RH WIND       PRES   REMARKS
BWI AIRPORT    LGT RAIN  41  40  96 NW3       29.91R VSB 1
MD SCIENCE CTR   N/A     42  40  92 MISG      29.91R
MARTIN STATE   LGT RAIN  39  39 100 CALM      29.93R FOG
ANNAPOLIS      LGT RAIN  36  34  92 NW3       29.91R VSB 3/4
FORT MEADE*    CLOUDY    39  37  93 CALM      29.95R VSB 1/4

$$

MDZ012-015-019>023-050200-
MARYLAND EASTERN SHORE

CITY           SKY/WX    TMP DP  RH WIND       PRES   REMARKS
OCEAN CITY     FOG       41  41 100 CALM      29.89F VSB 1/4
SALISBURY      FOG       49  47  93 CALM      29.88F VSB 3/4
BAY BRIDGE AP* DRIZZLE   37  37 100 CALM      29.92R
CAMBRIDGE*     CLOUDY    45  41  87 CALM      29.89R VSB 3/4
EASTON*        LGT RAIN  46  46 100 CALM      29.93  VSB 1/4

$$

MDZ017>025-050200-
SOUTHERN MARYLAND

CITY           SKY/WX    TMP DP  RH WIND       PRES   REMARKS
PATUXENT RIVER LGT RAIN  45  44  97 CALM      29.89S FOG
ST INIGOES     CLOUDY    45  43  93 CALM      29.88S FOG
LEONARDTOWN*   CLOUDY    50  46  87 CALM      29.91R

$$

MDZ003>005-050200-
NORTH CENTRAL MARYLAND

CITY           SKY/WX    TMP DP  RH WIND       PRES   REMARKS
FREDERICK*     RAIN      37  36  93 CALM      29.96  VSB 1/2
HAGERSTOWN APT LGT RAIN  43  38  82 N5        29.92R
WESTMINSTER*   RAIN      39  39 100 CALM      29.92R VSB 1

$$

MDZ501>502-050200-
WESTERN MARYLAND

CITY           SKY/WX    TMP DP  RH WIND       PRES   REMARKS
OAKLAND*       FOG       32 N/A N/A NW8       29.89F VSB 1/4 WCI  25
CUMBERLAND*    CLOUDY    41  37  87 NE5       29.98R

$$

VAZ025>031-050200-
SHENANDOAH VALLEY

CITY           SKY/WX    TMP DP  RH WIND       PRES   REMARKS
WINCHESTER*    RAIN      45  41  87 NE5       29.92R
FRONT ROYAL*   CLOUDY    46  45  93 CALM      29.90R VSB 1/2
LURAY*         HVY RAIN  48  48 100 CALM      29.91R
NEW MARKET*    CLOUDY    39  39 100 CALM      29.92R VSB 1/4
STAUNTON*      RAIN      45  44  95 CALM      29.93R VSB 1/2
WAYNESBORO*    CLOUDY    46  46  99 N3        29.89R

$$

WVZ021-048>050-054>055-050200-
EASTERN WEST VIRGINIA PANHANDLE

CITY           SKY/WX    TMP DP  RH WIND       PRES   REMARKS
MARTINSBURG    LGT RAIN  44  39  82 NE6       29.93R
PETERSBURG*    NOT AVBL

$$

VAZ036>039-050-050200-
CENTRAL FOOTHILLS

CITY           SKY/WX    TMP DP  RH WIND       PRES   REMARKS
CHARLOTTESVILL LGT RAIN  45  44  97 N3        29.90R VSB 1/4
CULPEPER*      HVY RAIN  43  43 100 CALM      29.91R VSB 1/4
ORANGE*        RAIN      45  45 100 CALM      29.92R VSB 1/2
GORDONSVILLE*  FOG       42  42  99 CALM      29.90R VSB 1
WARRENTON*     RAIN      44  44 100 CALM      29.90R VSB 1/2

$$

VAZ055>057-050200-
NORTH AND CENTRAL PIEDMONT

CITY           SKY/WX    TMP DP  RH WIND       PRES   REMARKS
FREDERICKSBRG* LGT RAIN  51  51 100 CALM      29.90R VSB 1
STAFFORD*      RAIN      47  32  55 CALM      29.94R VSB 1

$$

NCZ024-NYZ072-PAZ021-071-VAZ022-071-050200-
OTHER REGIONAL OBSERVATIONS

CITY           SKY/WX    TMP DP  RH WIND       PRES   REMARKS
NEW YORK CITY  CLOUDY    43  38  82 VRB5      29.89F HAZE
PHILADELPHIA   LGT RAIN  41  40  96 CALM      29.92R VSB 1
PITTSBURGH     LGT SNOW  32  30  92 NW7       29.99R FOG
ROANOKE        LGT RAIN  47  45  93 N6        29.91S
RICHMOND       LGT RAIN  55  51  86 N3        29.89R
RALEIGH        MOCLDY    66  52  60 SW12      29.88R

$$

ANZ530>537-050200-
MARINE OBSERVATIONS

STATION/POSITION TIME  TEMP    WIND        PRES
                       AIR SEA DIR/SP/G
                 (UTC) (F)     (DEG/KT/KT) (MB)
THOMAS PT LIGHT  0100   40 32  360/  6/  7 1013.9R
BALT KEY BRIDGE  0000   37      CALM  /  1 1012.1F
COVE POINT       0000   42     200/ 11/ 12 1011.7F
LEWISETTA        0000   42 35     CALM     1011.8F
SOLOMONS ISLAND  0000      34                N/A

$$



USA.gov is the U.S. government's official web portal to all federal, state and local government web resources and services.